Wind_Speed
50 43 47 53 59 59 46 46 48 47 38 42 46 45 40 36 36 37 37 33 34 35 35 33 34 33 33 33 37 36 32 31 31 30 31 31 30 33 34 30 30 27 28 26
44 52 52 53 54 53 52 50 50 48 39 41 43 47 44 42 37 41 35 34 40 35 34 36 35 35 37 36 39 40 35 34 34 33 31 32 32 32 33 34 30 29 26 25
56 59 61 51 51 53 58 56 54 46 40 44 40 47 42 41 45 43 40 39 37 36 37 36 39 41 40 43 43 45 37 35 36 35 37 36 36 35 37 38 34 30 25 25
49 50 60 56 55 55 54 58 50 47 43 41 45 28 40 47 44 42 45 44 42 38 36 39 40 39 42 46 48 49 43 37 38 39 41 40 39 37 34 37 35 29 26 27
27 48 54 59 66 55 59 46 52 49 43 41 44 33 46 44 44 49 47 46 43 45 41 44 40 43 47 44 45 48 48 43 40 44 43 42 43 40 39 39 39 33 28 26
28 37 39 52 48 54 51 43 42 41 44 30 40 43 48 50 47 46 48 47 49 49 50 48 44 44 46 46 47 48 48 48 43 42 41 44 45 45 44 42 41 36 32 29
55 46 34 40 42 48 37 46 24 22 24 10 51 46 51 40 49 44 46 42 46 51 51 51 52 50 53 51 48 50 47 48 48 48 42 39 44 47 48 44 43 40 35 33
27 22 33 37 51 45 49 45 23 20 12 23 41 23 67 82 36 17 28 47 53 44 44 45 47 48 48 50 52 53 54 52 49 51 47 39 38 46 48 48 45 42 38 36
15 11 19 20 35 49 51 44 59 21 29 18 27 35 55 59 59 63 34 19 18 46 47 41 46 47 43 46 48 50 51 52 52 50 51 45 40 41 49 50 48 43 40 37
8 11 33 28 14 30 48 39 30 42 9 16 26 37 45 47 60 46 44 44 34 38 38 42 42 42 40 50 51 51 51 50 48 51 52 49 44 43 46 51 49 44 42 38
18 9 5 22 30 35 31 33 33 24 19 11 13 32 73 43 37 36 49 42 32 39 37 38 41 44 38 39 46 45 48 49 48 49 54 53 47 47 50 49 47 44 43 38
14 4 5 10 13 24 27 41 34 18 14 17 32 13 30 28 40 35 32 35 41 41 36 34 36 40 44 38 37 46 42 50 48 53 57 52 46 53 49 48 43 44 46 42
11 8 6 7 13 6 2 8 11 23 19 40 17 19 38 8 2 12 25 24 27 31 26 21 26 32 35 37 39 44 44 45 47 41 47 51 49 48 45 43 41 40 43 44
7 11 9 9 11 13 13 16 11 4 5 13 44 39 11 13 13 7 15 27 28 28 27 25 28 34 37 33 36 36 33 28 34 38 45 48 45 43 42 39 39 39 41 43
8 6 8 10 14 15 16 17 14 10 7 7 20 39 38 9 11 11 2 14 16 18 21 24 27 23 25 26 29 34 33 28 26 29 34 42 39 41 42 40 41 42 43 43
8 7 6 13 15 14 17 18 16 15 13 22 24 24 29 15 21 12 9 7 10 11 8 13 13 15 11 13 18 19 21 29 31 29 31 34 38 40 43 44 44 44 44 44
20 12 4 6 3 3 12 28 21 23 22 19 25 20 23 7 15 22 15 11 11 14 8 8 12 13 10 12 16 20 23 24 26 26 32 35 36 39 41 39 40 39 40 42
26 21 15 8 9 6 15 7 10 17 22 23 25 23 23 25 12 18 21 15 19 12 9 2 9 12 15 18 19 17 16 23 28 27 29 34 38 35 36 38 39 40 41 43
28 26 15 7 11 20 26 23 20 20 22 21 24 21 18 21 23 28 20 19 37 27 15 15 6 12 18 22 25 26 23 16 18 26 32 32 32 37 39 39 41 41 44 44
10 26 25 14 6 6 6 6 3 9 29 22 18 16 15 15 21 23 14 14 17 17 41 16 23 15 23 24 25 27 29 29 21 18 22 26 31 33 36 42 41 44 45 43
13 13 27 29 17 20 33 21 16 15 19 10 13 18 20 21 23 25 23 23 21 19 12 25 18 25 25 24 28 34 34 28 28 27 23 27 29 32 36 38 44 46 45 39
27 11 12 12 11 17 4 6 7 13 20 20 20 20 21 22 21 24 24 27 25 18 16 24 26 24 30 32 35 42 43 35 30 33 32 28 28 32 37 41 43 40 43 47
25 29 19 17 20 38 33 16 14 13 13 10 12 14 15 19 19 19 15 17 20 26 22 26 25 25 23 27 31 40 38 39 36 36 36 35 31 37 38 42 40 46 41 43
20 17 25 22 41 39 29 27 25 23 22 22 21 23 23 24 25 22 22 20 19 21 32 30 24 28 32 31 26 28 33 41 39 36 34 38 39 36 36 39 42 44 48 36
24 22 24 27 31 29 31 29 26 25 25 31 30 28 28 27 27 28 28 29 24 25 29 31 31 41 42 34 37 26 29 36 43 39 35 34 41 42 38 34 35 40 44 38
29 29 26 32 25 24 30 25 19 23 28 26 30 26 29 30 33 33 33 34 35 33 34 39 43 42 43 34 33 39 25 35 44 45 45 39 35 40 42 42 42 40 47 44
Wind_Direction
212 209 212 210 212 220 223 227 230 235 233 231 237 240 238 239 233 235 235 232 228 230 225 223 224 219 226 222 233 239 232 234 233 230 231 234 236 234 235 233 232 239 242 244
213 217 211 217 216 219 226 231 233 235 232 234 239 239 241 236 233 236 232 233 233 227 228 223 225 221 221 226 233 242 237 235 234 234 237 238 238 239 236 238 236 244 240 242
219 211 211 214 217 218 225 226 231 235 231 233 236 246 241 234 237 237 238 237 230 228 226 223 225 225 224 225 230 241 251 236 238 239 238 237 238 236 235 236 238 244 241 241
231 217 221 218 222 217 222 225 230 233 237 243 232 233 234 237 234 234 235 238 232 223 224 228 222 223 230 235 235 246 253 246 239 240 241 239 245 245 246 240 240 244 242 243
218 218 218 222 223 218 227 223 225 232 238 242 243 238 234 232 229 234 236 232 232 228 229 226 221 225 227 233 236 243 250 250 242 243 243 244 243 244 243 240 239 239 237 243
248 219 224 225 228 231 232 238 240 237 233 240 239 243 244 229 235 239 238 234 230 233 233 229 229 231 233 237 241 242 246 247 247 245 243 243 242 243 242 239 237 239 236 242
239 252 241 224 235 224 219 231 238 242 238 239 225 230 237 232 232 238 242 238 238 239 239 239 237 235 232 232 238 244 243 247 246 247 241 243 240 241 244 242 240 238 238 242
224 252 250 242 226 228 227 220 211 209 200 217 222 219 234 234 224 226 258 245 234 241 235 237 240 243 243 241 241 240 243 243 247 246 243 238 241 238 242 242 241 239 241 243
206 216 220 239 231 220 225 227 217 238 236 229 219 224 245 240 237 234 234 193 215 236 238 238 241 237 236 237 235 237 240 242 244 247 247 240 241 238 239 243 241 239 240 242
254 248 242 254 254 231 223 230 210 217 196 223 222 208 230 231 231 231 243 241 251 224 230 232 229 228 233 238 239 240 237 239 239 241 246 242 240 242 242 241 241 240 240 241
327 209 208 213 227 234 227 231 225 221 215 203 211 221 230 238 244 245 236 226 242 225 228 235 239 241 228 230 235 235 234 234 236 235 244 243 237 241 244 244 240 238 237 238
338 318 271 231 218 233 238 233 224 211 177 217 226 240 217 236 242 235 244 230 231 237 240 232 229 229 230 228 233 236 233 234 237 240 241 237 232 238 245 241 234 234 235 239
351 348 300 235 239 236 277 33 214 206 213 203 199 223 231 262 165 186 183 180 205 205 205 217 211 211 221 219 219 224 229 233 238 235 230 229 230 238 242 237 234 235 235 237
310 292 297 299 311 321 318 332 348 212 236 195 211 217 192 184 188 62 180 195 203 200 208 201 215 222 228 226 225 232 232 240 244 245 234 229 232 240 237 234 233 234 234 236
227 271 294 311 301 293 301 310 316 315 261 227 200 222 216 195 197 120 198 235 220 230 231 228 219 222 223 225 220 223 231 233 248 239 227 229 233 234 235 235 236 235 232 237
273 259 286 296 293 288 289 284 284 282 276 241 244 236 218 278 193 181 264 145 161 152 207 209 205 209 223 218 225 222 229 229 232 229 227 230 232 231 232 234 234 235 229 229
280 282 309 304 31 280 285 282 275 262 261 256 253 251 231 233 234 254 264 262 220 171 107 257 256 254 235 209 200 212 212 217 223 226 225 230 233 235 234 232 233 230 226 232
262 261 267 255 294 238 276 229 233 250 273 273 269 270 261 252 267 272 274 269 258 236 181 150 279 244 244 246 236 241 214 218 223 226 228 231 232 233 233 232 229 230 235 239
235 246 245 242 238 269 281 256 226 226 263 250 265 278 278 270 270 267 288 280 258 258 261 222 214 269 247 246 249 256 245 244 232 224 226 228 232 234 233 229 230 233 236 235
230 226 231 235 241 266 231 88 121 259 254 250 243 262 286 285 246 269 260 258 259 271 255 263 250 234 271 265 253 252 259 252 257 249 239 235 235 236 231 228 233 227 233 234
254 225 220 236 244 262 267 263 278 275 256 270 267 260 262 268 268 255 245 242 249 256 249 249 241 236 235 268 275 271 265 259 255 250 239 234 234 234 228 227 227 231 241 232
259 245 236 232 233 256 305 42 231 273 266 267 271 275 277 267 273 269 248 241 246 242 230 246 225 232 239 245 256 267 270 270 257 246 240 236 234 230 224 225 231 237 233 229
258 237 230 221 250 276 286 298 288 285 289 264 266 273 275 270 264 270 272 255 259 234 227 235 255 255 257 254 247 255 263 268 264 248 242 235 236 229 224 224 231 222 230 232
282 279 248 251 256 260 271 281 281 278 271 265 271 277 278 272 271 268 259 253 256 248 234 229 226 223 228 239 235 260 260 266 264 250 242 237 235 230 220 223 235 224 223 238
275 281 277 275 276 277 264 272 270 267 272 273 277 275 272 269 267 274 262 264 248 249 240 228 226 223 225 221 212 249 263 258 262 250 241 240 237 233 232 232 237 226 239 240
272 267 269 273 283 283 284 285 278 272 263 255 258 262 271 271 268 265 265 260 265 255 249 240 231 232 229 226 219 219 267 252 260 257 245 243 243 234 229 229 234 229 234 232
Height
3008 3014 3014 3018 3023 3029 3044 3044 3047 3051 3058 3063 3060 3063 3067 3071 3075 3077 3080 3081 3084 3088 3091 3096 3099 3103 3104 3106 3106 3108 3113 3117 3119 3122 3124 3127 3131 3135 3137 3141 3145 3149 3151 3152
2999 2996 3004 3012 3021 3029 3034 3037 3037 3042 3051 3054 3053 3052 3060 3063 3064 3068 3070 3074 3076 3081 3085 3089 3092 3095 3098 3098 3097 3100 3106 3110 3114 3117 3120 3122 3125 3129 3133 3136 3140 3142 3146 3148
2980 2982 2993 3007 3012 3019 3018 3023 3026 3032 3042 3046 3048 3044 3048 3051 3055 3058 3062 3065 3068 3072 3076 3081 3085 3086 3090 3092 3090 3091 3096 3103 3108 3112 3114 3116 3118 3122 3126 3129 3133 3136 3141 3144
2975 2983 2989 2995 2998 3007 3009 3014 3023 3030 3035 3031 3036 3031 3039 3040 3043 3049 3050 3055 3058 3064 3069 3073 3077 3080 3081 3083 3085 3083 3088 3094 3100 3103 3106 3109 3112 3115 3120 3124 3128 3131 3135 3138
2966 2973 2978 2985 2984 2997 2996 3012 3017 3021 3023 3026 3024 3027 3022 3032 3030 3033 3039 3044 3050 3054 3058 3063 3067 3072 3075 3075 3079 3080 3080 3082 3090 3094 3099 3102 3105 3110 3113 3116 3121 3125 3129 3132
2961 2965 2967 2970 2983 2995 3001 3010 3012 3013 3015 3011 3016 3020 3003 3014 3017 3026 3030 3034 3038 3043 3047 3053 3059 3063 3066 3066 3070 3074 3075 3074 3078 3084 3089 3093 3098 3101 3103 3108 3113 3118 3123 3126
2958 2958 2961 2966 2970 2977 2987 3002 3003 3004 2999 3002 3005 3007 2993 3001 3012 3017 3020 3023 3027 3031 3036 3039 3043 3049 3054 3058 3058 3062 3066 3067 3070 3071 3081 3083 3088 3092 3094 3100 3106 3111 3116 3119
2951 2955 2954 2958 2958 2967 2976 2982 2986 2986 2984 2982 2991 3000 2975 2971 3007 3007 3004 3004 3016 3024 3026 3029 3033 3036 3041 3045 3046 3052 3055 3057 3061 3062 3069 3076 3080 3083 3085 3089 3096 3103 3108 3113
2943 2944 2949 2951 2955 2963 2966 2967 2969 2981 2979 2980 2980 2989 2978 2987 2990 2994 2997 2999 3003 3012 3018 3021 3026 3029 3032 3034 3037 3037 3044 3048 3051 3054 3058 3067 3071 3074 3076 3078 3086 3095 3100 3104
2940 2940 2943 2947 2950 2953 2957 2966 2968 2972 2969 2971 2968 2973 2961 2968 2970 2983 2989 2992 2996 3001 3005 3009 3013 3017 3020 3024 3027 3027 3032 3036 3043 3045 3048 3055 3062 3066 3067 3068 3078 3087 3092 3096
2939 2935 2937 2942 2941 2945 2951 2949 2953 2956 2960 2958 2955 2956 2938 2969 2968 2973 2976 2980 2986 2990 2994 2998 3001 3005 3010 3013 3015 3016 3022 3026 3031 3036 3039 3044 3051 3055 3056 3061 3070 3077 3083 3088
2939 2933 2931 2934 2938 2941 2941 2941 2943 2941 2943 2949 2946 2946 2956 2958 2959 2961 2964 2967 2977 2982 2985 2988 2993 2997 2999 3003 3008 3004 3011 3016 3021 3027 3029 3033 3040 3041 3049 3053 3062 3068 3074 3079
2942 2938 2934 2931 2935 2931 2934 2933 2932 2930 2938 2938 2941 2939 2946 2952 2953 2956 2953 2958 2966 2971 2977 2982 2985 2987 2991 2996 3000 3000 3002 3007 3012 3015 3018 3026 3028 3034 3041 3046 3054 3061 3066 3071
2940 2938 2939 2935 2937 2936 2933 2934 2932 2928 2931 2929 2934 2933 2946 2942 2947 2951 2955 2958 2964 2966 2971 2977 2977 2980 2984 2988 2993 2993 2995 3000 3002 3006 3010 3016 3023 3028 3033 3039 3046 3052 3057 3062
2940 2939 2936 2932 2932 2933 2933 2931 2931 2930 2931 2930 2932 2935 2941 2940 2945 2951 2961 2959 2960 2961 2966 2970 2971 2974 2977 2981 2983 2987 2989 2993 2996 2998 3002 3010 3016 3020 3024 3032 3038 3043 3050 3053
2936 2935 2931 2928 2928 2929 2930 2928 2928 2930 2928 2925 2923 2925 2931 2935 2943 2944 2950 2951 2950 2953 2961 2966 2966 2967 2971 2973 2976 2981 2984 2986 2989 2993 2997 3002 3008 3013 3017 3021 3027 3034 3040 3046
2937 2933 2932 2930 2929 2930 2929 2920 2920 2926 2926 2927 2925 2929 2932 2935 2935 2938 2941 2943 2944 2949 2954 2960 2963 2964 2967 2969 2971 2973 2976 2980 2983 2986 2990 2995 3000 3005 3010 3015 3020 3026 3033 3038
2930 2932 2932 2930 2930 2928 2917 2919 2921 2921 2919 2919 2919 2924 2925 2928 2935 2936 2936 2939 2943 2947 2950 2955 2958 2960 2962 2963 2967 2967 2971 2973 2975 2979 2983 2988 2991 2997 3003 3008 3014 3020 3026 3031
2922 2925 2927 2925 2924 2917 2917 2911 2912 2915 2914 2916 2916 2919 2920 2921 2924 2929 2931 2933 2935 2940 2946 2951 2954 2954 2956 2959 2962 2963 2965 2968 2970 2973 2977 2980 2984 2988 2993 2999 3005 3011 3016 3022
2915 2918 2921 2920 2919 2912 2907 2908 2912 2913 2908 2913 2915 2916 2916 2917 2916 2921 2927 2931 2935 2936 2933 2945 2949 2952 2950 2954 2956 2958 2960 2964 2967 2969 2972 2974 2977 2981 2986 2993 2997 3003 3009 3014
2912 2912 2912 2912 2914 2905 2893 2904 2908 2911 2911 2908 2908 2907 2908 2912 2915 2915 2918 2920 2925 2927 2931 2934 2941 2945 2949 2948 2948 2951 2954 2959 2963 2963 2965 2966 2969 2974 2979 2985 2990 2996 2999 3006
2903 2903 2903 2904 2908 2903 2892 2899 2903 2902 2900 2903 2904 2904 2907 2910 2912 2911 2912 2915 2918 2922 2926 2928 2933 2934 2936 2942 2941 2944 2944 2954 2955 2956 2959 2960 2963 2965 2970 2976 2981 2986 2991 2996
2896 2896 2895 2896 2889 2882 2884 2890 2894 2896 2896 2897 2897 2897 2901 2904 2906 2906 2905 2908 2912 2915 2916 2919 2922 2926 2930 2933 2937 2936 2939 2941 2946 2948 2950 2953 2956 2956 2960 2966 2973 2976 2982 2987
2890 2892 2888 2891 2876 2880 2885 2886 2890 2890 2891 2889 2892 2892 2894 2896 2897 2898 2900 2902 2905 2907 2907 2910 2915 2918 2921 2924 2929 2929 2932 2931 2935 2939 2940 2943 2945 2948 2953 2958 2962 2966 2972 2976
2888 2888 2885 2881 2876 2881 2881 2882 2885 2883 2882 2879 2881 2883 2884 2887 2888 2889 2893 2895 2896 2898 2900 2902 2902 2905 2910 2913 2917 2922 2921 2923 2923 2929 2931 2933 2935 2940 2946 2950 2954 2958 2964 2970
2880 2879 2879 2874 2878 2878 2875 2876 2875 2877 2878 2874 2874 2875 2876 2877 2879 2880 2881 2883 2884 2886 2889 2891 2891 2893 2896 2902 2904 2910 2912 2911 2909 2915 2921 2923 2926 2931 2934 2939 2942 2949 2956 2961